WY1U-1 Weather Reports


Display with metric or nautical units.
time (UTC)temp
F
wind
direction
speed
MPH
gust
MPH
rain 1hr
in
rain 24hr
in
rain mn
in
humidity
%
barometer
mb
20260505120150 57 202 3.0 8.0 0.00 0.00 0.00 86 1011.9
20260505100150 52 192 0.0 2.0 0.00 0.00 0.00 92 1010.8
20260505090151 52 210 0.0 2.0 0.00 0.00 0.00 91 1010.7
20260505080150 53 191 0.0 0.0 0.00 0.00 0.00 88 1010.8
20260505070150 53 191 0.0 2.0 0.00 0.00 0.00 86 1011.0
20260505060152 53 194 1.0 3.0 0.00 0.00 0.00 83 1011.2
20260505050149 54 196 0.0 2.0 0.00 0.00 0.00 80 1011.5
20260505033149 55 204 1.0 3.0 0.00 0.00 0.00 77 1011.6
20260505030150 55 203 1.0 3.0 0.00 0.00 0.00 76 1011.5
20260505013149 57 205 1.0 6.0 0.00 0.00 0.00 70 1011.5
20260505010149 58 195 2.0 7.0 0.00 0.00 0.00 68 1011.1
20260505000150 59 215 2.0 6.0 0.00 0.00 0.00 62 1010.2
20260504220150 66 197 6.0 18.0 0.00 0.00 0.00 48 1009.7
20260504200150 68 204 8.0 18.0 0.00 0.00 0.00 41 1009.5
20260504190150 68 222 7.0 16.0 0.00 0.00 0.00 39 1009.7
20260504180150 69 226 4.0 14.0 0.00 0.00 0.00 34 1010.2
20260504170150 68 238 5.0 13.0 0.00 0.00 0.00 32 1010.7
20260504160150 67 237 7.0 21.0 0.00 0.00 0.00 33 1011.4
20260504150150 64 261 5.0 14.0 0.00 0.00 0.00 35 1012.1
20260504140150 62 250 5.0 14.0 0.00 0.00 0.00 38 1012.6
20260504130150 59 257 4.0 10.0 0.00 0.00 0.00 45 1013.2